Location: G�migny
(47.9646°N, 1.6950°E)
Time: 20:52:24
(UTC+00:00)

STARLINK-68 - Pass Details

Date: 23 October 2019
Orbit: 548 x 551 km, 53.0° (Epoch: 11 November)

Event Time Altitude Azimuth Distance (km) Brightness Sun altitude
Rises 18:41:30 0° 293° (WNW) 2,720 8.5 -19.2°
Reaches altitude 10° 18:43:47 10° 298° (WNW) 1,825 7.2 -19.6°
Maximum altitude 18:47:50 53° 16° (NNE) 679 3.9 -20.3°
Enters shadow 18:48:22 49° 46° (NE) 713 3.9 -20.3°
